Charlotte, NC

9:31 AM EST on February 12, 2016 (GMT -0500)
Charlotte-Douglas International

Weather History for KCLT - December, 2002

Change the Weather History Date:

Wednesday, December 4, 2002

  Actual Average Record
Temperature  
Mean Temperature 32 °F 45 °F  
Max Temperature 37 °F 56 °F 76 °F (1956)
Min Temperature 26 °F 34 °F 18 °F (2000)
Degree Days  
Heating Degree Days 34 20  
Month to date heating degree days 78  
Since 1 July heating degree days 714  
Cooling Degree Days 0 0  
Month to date cooling degree days 0  
Year to date cooling degree days 1517  
Moisture  
Dew Point 20 °F    
Average Humidity 73    
Maximum Humidity 100    
Minimum Humidity 28    
Precipitation  
Precipitation 0.60 in 0.11 in 1.93 in (1945)
Month to date precipitation 0.45  
Year to date precipitation 38.83  
Snow  
Snow 0.00 in 0.00 in 7.20 in (1886)
Month to date snowfall 0.0  
Since 1 July snowfall 0.1  
Snow Depth -    
Sea Level Pressure  
Sea Level Pressure 30.40 in    
Wind  
Wind Speed 9 mph (NNE)    
Max Wind Speed 14 mph    
Max Gust Speed -    
Visibility 6 miles    
Events Rain , Snow    
T = Trace of Precipitation, MM = Missing Value Source: NWS Daily Summary

Daily Weather History Graph

Daily Weather History Graph

Search for Another Location

Airport or City:

Trip Planner

Search our weather history database for the weather conditions in past years. The results will help you decide how hot, cold, wet, or windy it might be!

Date:

Astronomy

Dec. 04, 2002 Rise Set
Actual Time 7:16 AM EST 5:11 PM EST
Civil Twilight 6:48 AM EST 5:39 PM EST
Nautical Twilight 6:17 AM EST 6:10 PM EST
Astronomical Twilight 5:46 AM EST 6:41 PM EST
Moon 7:36 AM EST (12/4) 5:34 PM EST (12/4)
Length of Visible Light 10h 50m
Length of Day
9h 54m
New Moon, 0% of the Moon is Illuminated
Dec 4
New Moon
Dec 11
First Quarter
Dec 19
Full
Dec 26
Last Quarter
Jan 2
New

Hourly Weather History & Observations

Time (EST) Temp. Windchill Dew Point Humidity Pressure Visibility Wind Dir Wind Speed Gust Speed Precip Events Conditions
12:51 AM 37.0 °F 29.3 °F 19.0 °F 48% 30.44 in 10.0 mi ENE 11.5 mph - N/A   Overcast
1:51 AM 36.0 °F 28.5 °F 17.1 °F 46% 30.47 in 10.0 mi ENE 10.4 mph - N/A   Overcast
2:51 AM 34.0 °F 28.0 °F 10.0 °F 37% 30.48 in 10.0 mi ENE 6.9 mph - N/A   Overcast
3:51 AM 33.1 °F 26.1 °F 5.0 °F 31% 30.47 in 10.0 mi ENE 8.1 mph - N/A   Overcast
4:51 AM 32.0 °F 23.6 °F 1.9 °F 28% 30.44 in 10.0 mi ENE 10.4 mph - N/A   Overcast
5:51 AM 30.9 °F 22.8 °F 3.0 °F 31% 30.48 in 10.0 mi NE 9.2 mph - N/A   Overcast
6:51 AM 30.9 °F 23.5 °F 3.0 °F 31% 30.49 in 10.0 mi NE 8.1 mph - N/A   Overcast
7:51 AM 30.9 °F 23.5 °F 5.0 °F 33% 30.49 in 10.0 mi NE 8.1 mph - N/A   Overcast
8:51 AM 30.9 °F 22.2 °F 3.9 °F 32% 30.51 in 10.0 mi NE 10.4 mph - 0.00 in   Overcast
9:51 AM 30.9 °F 21.7 °F 10.0 °F 42% 30.51 in 10.0 mi NNE 11.5 mph - N/A   Overcast
10:16 AM 28.4 °F 17.5 °F 14.0 °F 55% 30.51 in 10.0 mi North 13.8 mph - 0.00 in   Light Ice Pellets
10:51 AM 28.9 °F 19.8 °F 14.0 °F 54% 30.53 in 10.0 mi NE 10.4 mph - 0.00 in   Light Ice Pellets
11:31 AM 28.4 °F 18.0 °F 15.8 °F 59% 30.44 in 10.0 mi NNE 12.7 mph - 0.00 in   Overcast
11:51 AM 28.9 °F 20.4 °F 16.0 °F 58% 30.46 in 9.0 mi NE 9.2 mph - 0.01 in   Light Ice Pellets
12:51 PM 27.0 °F 18.7 °F 21.9 °F 81% 30.47 in 3.0 mi North 8.1 mph - 0.02 in Snow Light Snow
1:23 PM 26.6 °F 17.5 °F 23.0 °F 86% 30.42 in 3.0 mi NNE 9.2 mph - 0.03 in Rain Light Freezing Rain
1:33 PM 26.6 °F 20.0 °F 24.8 °F 93% 30.43 in 3.0 mi NNE 5.8 mph - 0.04 in Rain Light Freezing Rain
1:51 PM 26.1 °F 16.2 °F 24.1 °F 92% 30.45 in 3.0 mi NNE 10.4 mph - 0.05 in Snow Light Snow
2:17 PM 26.6 °F 16.8 °F 24.8 °F 93% 30.40 in 3.0 mi NNE 10.4 mph - 0.03 in   Overcast
2:36 PM 26.6 °F 16.2 °F 24.8 °F 93% 30.39 in 3.0 mi NNE 11.5 mph - 0.04 in Rain Light Freezing Rain
2:51 PM 27.0 °F 18.0 °F 25.0 °F 92% 30.40 in 3.0 mi North 9.2 mph - 0.04 in Rain Light Freezing Rain
3:12 PM 26.6 °F 21.2 °F 24.8 °F 93% 30.40 in 3.0 mi NNE 4.6 mph - 0.00 in Rain Light Freezing Rain
3:51 PM 27.0 °F 18.7 °F 25.0 °F 92% 30.42 in 3.0 mi NNE 8.1 mph - 0.01 in Rain Light Freezing Rain
4:33 PM 28.4 °F 19.1 °F 26.6 °F 93% 30.37 in 1.8 mi ENE 10.4 mph - 0.03 in Rain Light Freezing Rain
4:51 PM 28.0 °F 21.7 °F 27.0 °F 96% 30.40 in 2.0 mi NNE 5.8 mph - 0.04 in Rain Light Freezing Rain
5:51 PM 28.0 °F 19.3 °F 28.0 °F 100% 30.37 in 2.0 mi NE 9.2 mph - 0.06 in Rain Light Freezing Rain
6:51 PM 28.9 °F 19.8 °F 28.9 °F 100% 30.34 in 2.0 mi NNE 10.4 mph - 0.06 in Rain Light Freezing Rain
7:51 PM 30.0 °F 22.4 °F 30.0 °F 100% 30.32 in 2.0 mi NNE 8.1 mph - 0.04 in Rain Light Freezing Rain
8:51 PM 30.0 °F 22.4 °F 30.0 °F 100% 30.29 in 2.0 mi NNE 8.1 mph - N/A Rain Light Freezing Rain
9:51 PM 30.0 °F 22.4 °F 30.0 °F 100% 30.26 in 2.0 mi North 8.1 mph - 0.04 in Rain Light Freezing Rain
10:51 PM 30.0 °F 23.2 °F 30.0 °F 100% 30.25 in 2.0 mi North 6.9 mph - 0.11 in Rain Light Freezing Rain
11:18 PM 30.2 °F - 30.2 °F 100% 30.22 in 2.0 mi Calm Calm - 0.04 in Rain Light Freezing Rain
11:36 PM 30.2 °F - 30.2 °F 100% 30.21 in 2.0 mi Calm Calm - 0.07 in Rain Light Freezing Rain
11:51 PM 30.0 °F - 30.0 °F 100% 30.22 in 2.0 mi Calm Calm - 0.12 in Rain Light Freezing Rain